Preview of NWS' New Version of Forecast
This preview is not operational and should not be used for support decisions.

Regional Weather Roundup (RWR)

Issued by Gray - Portland, ME (GYX)

                            
000
ASUS41 KGYX 231310
RWRGYX
WEATHER ROUNDUP FOR MAINE AND NEW HAMPSHIRE
NATIONAL WEATHER SERVICE GRAY ME
800 AM EST SAT FEB 23 2019

MEZ002-005-006-010-012-015-018-020-021-024-026-027-029-231400-
MAINE
  
CITY           SKY/WX    TMP DP  RH WIND       PRES   REMARKS
PORTLAND       FAIR      22  16  78 CALM      30.50S                  
SANFORD        FAIR      23  18  81 CALM      30.50R                  
WISCASSET      FAIR      21  17  84 SW3       30.51R                  
ROCKLAND       FAIR      23  16  74 W7        30.49R                  
FRYEBURG       FAIR      13   9  84 CALM      30.48R                  
LEWISTONAUBURN FAIR      18  15  88 N5        30.49R                  
AUGUSTA        FAIR      25  12  58 W8        30.46S                  
WATERVILLE     FAIR      15  13  91 CALM      30.43S                  
BANGOR         FAIR      16  12  84 CALM      30.46R                  
GREENVILLE       N/A     18   5  57 NW10      30.32S WCI   6          
MILLINOCKET    FAIR       9   4  80 SW5       30.43S                  
HOULTON        CLOUDY     9   7  92 CALM      30.39S                  
PRESQUE ISLE   PTSUNNY   -1  -6  79 CALM      30.39F                  
FRENCHVILLE    FAIR      11   2  67 W7        30.31F                  
CARIBOU        FAIR       6  -1  73 W5        30.36S                  
$$

NHZ002-005-008-009-011-012-014-231400-
NEW HAMPSHIRE
  
CITY           SKY/WX    TMP DP  RH WIND       PRES   REMARKS
PORTSMOUTH     PTSUNNY   27  16  64 W6        30.50R                  
ROCHESTER      FAIR      25  16  68 NW5       30.49R                  
NASHUA         FAIR      25  20  81 CALM      30.52R                  
MANCHESTER     PTSUNNY   27  17  66 CALM      30.49R                  
CONCORD        FAIR      18  16  92 CALM      30.50R                  
LACONIA        FAIR      24  15  68 S5        30.48S                  
PLYMOUTH       FAIR      21  14  75 NW6       30.49F                  
BERLIN         FAIR      -2  -3  96 CALM      30.45R                  
WHITEFIELD     FAIR       2  -1  88 CALM      30.48R                  
JAFFREY        FAIR      19  16  88 CALM      30.45R                  
KEENE          FLURRIES  19  17  92 CALM      30.50R                  
LEBANON        FAIR      16  11  80 CALM      30.50S                  
MT WASHINGTON  MOSUNNY    9  -6  52 NW37        N/A  WCI -16          
$$

VTZ005-007-008-231400-
VERMONT
  
CITY           SKY/WX    TMP DP  RH WIND       PRES   REMARKS
ST JOHNSBURY     N/A      5   3  91 MISG      30.50R                  
MONTPELIER     CLOUDY    10   9  95 CALM      30.50S                  
BURLINGTON     FLURRIES  19  15  84 E3        30.52R                  
$$

MAZ007-012-024-CTZ003-RIZ002-NYZ038-NYZ072-231400-
SOUTHERN NEW ENGLAND AND NY
  
CITY           SKY/WX    TMP DP  RH WIND       PRES   REMARKS
BOSTON         PTSUNNY   31  17  56 NW8       30.52R                  
WORCESTER      FAIR      25  15  66 NW3       30.45R                  
NANTUCKET      FAIR      36  31  82 N6        30.48R                  
PROVIDENCE     PTSUNNY   30  20  66 N7        30.51R                  
HARTFORD       CLOUDY    27  19  72 N6        30.50S                  
ALBANY         PTSUNNY   23  16  74 CALM      30.52R                  
NEW YORK CITY  PTSUNNY   33  20  58 NE9       30.50R                  
$$

ANZ081-ANZ082-ANZ150-NHZ014-MEZ023>029-231400-
COASTAL MARINE OBSERVATIONS
  
STATION/POSITION TIME  TEMP    WIND        PRES    WAVE
                       AIR SEA DIR/SP/G            HT/PER
                 (UTC) (F)     (DEG/KT/KT) (MB)    (FT/S)
MOUNT DESERT ROC 1300   29     280/ 11/ 12 1032.1R
MATINICUS ROCK   1200   30     300/  9/ 10 1031.3R
ISLE OF SHOALS   1200   29     310/ 12/ 13 1032.4R
CASHES LEDGE BUO 1250   35 39              1032.8R   2/ 8
$$

.............KEY..............
   WCI - WIND CHILL
   TC  - TEMPERATURE IN CELSIUS
   VSB - VISIBILITY IN MILES
   HX  - HEAT INDEX
   FAIR- INDICATES FEW OR NO CLOUDS BELOW 12,000 FT, WITH NO 
         SIGNIFICANT WEATHER AND/OR OBSTRUCTIONS TO VISIBILITY.